Race Results for
Fontana National Presented by MAXXIS NMBS#1
Fontana, CA
(Event Information)
Cross Country on 03/29/2008

Note: Ranking points are NOT upgrade points. An explanation of ranking points can be found here.


Men - SP - Junior - 15-16

 Place Points NameCity, StateTime USAC #BibTeam
DNF Quint Berkemeier   Lake Arrowhead, CADNS 240136  1113 

Men - SM - Senior

 Place Points NameCity, StateTime USAC #BibTeam
1 Sean Babcock   Beaverton, OR1:39:46.99 261628  203 TM S&M
2 Ty Kady   Placentia, CA1:40:27.81 191004  221 SHO-AIR/RO
3 Jason Siegle   Solvang, CA1:40:42.24 193522  210 BEAR VALLE
4 Scott McKelvey   Cathedral City, CA1:41:08.30 93336  216 PALM SPRIN
5 Jim Hewett   Fairfax, CA1:41:20.58 226388  222 CONTENT WO
6 Jan Koles   Winter Park, CO1:41:20.68 222615  207 RMCEF/MOB
7 Marcus Hayward   Mesa, AZ1:42:33.57 241388  223 SAN TAN/PA
8 Matt Googe   Knoxville, TN1:42:37.33 223967  208 BICYCLES O
9 Matt Chaney   Fairfax, CA1:42:40.71 245028  202 CONTENT WO
10 Romolo Forcino   Oak Hills, CA1:42:42.00 188303  224 BEAR VALLE
11 Richard Thurman   Chico, CA1:43:31.00 35561  209 IC3
12 Robert Bender   Redlands, CA1:44:09.97 226872  240 DONS BIKES
13 Chad Stoehr   San Luis Obispo, CA1:44:41.08 139643  243 BLUE COMPE
14 Daniel Perez   Corona, CA1:44:53.33 238167  213 JENSON USA
15 Lyle Warner   Altadena, CA1:44:55.86 198500  247 HELENS SUB
16 Luke Rozanski   Black Mountain, NC1:45:22.54 186103  211 MAVERICK I
17 Christopher Crosby   Boulder, CO1:45:37.65 83482  236 PRIMUS CYC
18 Alex Boone   Pasadena, CA1:45:49.97 224203  218 HELENS/SUB
19 Justin Raynes   Bozeman, MT1:46:39.27 197456  212 BIKES UNLI
20 Andrew Rigel   Seattle, WA1:46:46.65 77337  220 MAFIA RACI
21 Jeff Herrera   Tempe, AZ1:47:21.94 210732  217 PROCON/1ST
22 SERGIO GARCIA   1:47:32.61  234 SC VELO
23 Tsering Alleyne   Novato, CA1:47:42.12 196474  245 LOST COAST
24 Christopher Suter   Flagstaff, AZ1:47:57.74 194778  250 NAV CYCLIN
25 Luke Brechwald   Olympia, WA1:48:12.53 178514  215 RAD RACING
26 MATT OHRAN   1:48:36.91  241 MONAVIECAN
27 ALLAN LAFRAMBOISE   1:48:44.08  242 DONS BIKES
28 Chris Burnham   Seaside, CA1:49:24.54 144657  233 BURNHAM CO
29 Raymond Caballero   Los Angeles, CA1:50:16.11 163194  232 HELENS/FIS
30 Matthew Wittler   Ashland, OR1:50:32.38 211532  219 KELLY BIKE
31 Josh Smith   Modjeska, CA1:51:51.56 218123  238 TEA FLOW
32 DEAN POSHARD   1:52:10.84  206 ROCKLOBSTE
33 Derek Hermon   Big Bear Lake, CA1:53:40.03 15935  239 BV BIKES/S
34 Paul Klysz   Oceanside, CA1:54:17.96 126200  229 CELO PACIF
35 Benjamin Ragains   Sparks, NV1:54:46.99 211382  228 NORTHSTAR/
36 Cris Adame   Playas De Tijuana1:55:14.90 244082  227 
37 Ryan Clark   Laguna Hills, CA1:58:39.47 242802  231 CYNERGY/RK
38 John Davis   Lakewood, OH2:00:43.96 232385  204 SPIN BIKE
39 Greg Alexander   Vista, CA2:01:48.88 173168  244 CAL COAST
DNF Tom Sharp   San Carlos, CADNF 224912  205 CONTENTWOR
DNF Michael Hosey   Cotati, CADNF 195352  214 
DNF Christopher Hull   Flagstaff, AZDNF 187518  230 SCHAMPA.
DNF Michael Viertel   Chattanooga, TNDNF 144596  235 BENTS CYCL
DNF Zack Vestal   Golden, CODNF 36636  237 TREK-VW
DNF John Nobil   La Jolla, CADNF 26168  246 BEAR VALLE
DNF Erik Ebberoth   Seaside, CADNF 220099  249 JOSELYNS/B
DNF ROB DILLION   DNF  201 INDEPENDEN

Men - PR/SM - Single Speed

 Place Points NameCity, StateTime USAC #BibTeam
1 Josh Kelley (1 - PR)   Portland, OR1:40:19.78 248579  225 SHO-AIR/RO
2 Brad Stephenson   Aliso Viejo, CA1:44:35.11 107621  226 SHO-AIR
3 Anthony Manzella   Los Angeles, CA1:45:47.42 22423  248 HELENS/SUB
4 Matthew Freeman   Redlands, CA1:49:39.76 172215  1144 CYCLERY US
5 Bert Blanchette (1 - SM)   Long Beach, CA1:50:39.88 3886  773 BACKBONE R
6 Dezmin Wilder (2 - PR)   Grass Valley, CA1:50:40.20 225330  424 SOBE CANNO
7 Trevor Walton (2 - SM)   Redlands, CA1:54:33.30 152585  720 TEAM REDLA
DNF Alexis Seletzky   Los Angeles, CADNF 194792  413 CYNERGY

Men - EX - Junior - 1-16

 Place Points NameCity, StateTime USAC #BibTeam
1 William Curtis   San Rafael, CA1:11:40.70 233101  607 WHOLE ATHL
2 Justin Brewer   Temecula, CA1:22:47.37 261145  970 CYCO-PATH
3 Garrett Garcia   Foothill Ranch, CA1:26:17.15 227141  1194 LADERA CYC
4 KEVIN ALVAREZ   1:27:11.19  1178 KHS/COMP E

Men - EX - Junior - 1-18

 Place Points NameCity, StateTime USAC #BibTeam
1 Nate Byrom   Penn Valley, CA1:44:03.22 237491  553 
2 Benjamin Kraushaar   Durango, CO1:45:32.85 198737  608 SMITH OPTI
3 Cody Cox   Colorado Springs, CO1:46:42.19 229249  434 
4 Rob Squire   Sandy, UT1:47:24.86 267198  971 DEVO
5 Zach Patterson   Pinon Hills, CA1:50:21.86 254679  498 THE BLOCK
6 Adam Brooks   Cave Junction, OR1:53:21.22 217440  995 SCOTT USA
7 Brae Patten   Gunnison, CO1:55:08.31 230367  571 TOKYO JOES
8 Adam Parke   Steamboat Springs, CO1:56:19.25 213492  426 CRANK BROT
9 Kyle Kraakevik   Scottsdale, AZ2:04:01.68 232125  501 FETISH CYC
10 Kody Adams   Hesperia, CA2:06:59.72 181187  1161 SOBE CANNO
11 MATTS HANSSENS   2:21:32.70  601 
DNF Bryce Gordon   Durango, CODNF 405755  602 ELLSWORTH/

Men - EX - Senior

 Place Points NameCity, StateTime USAC #BibTeam
1 Miles Neisser   Laguna Beach, CA1:46:14.20 207644  662 ROCK SOLID
2 Craig Sisino   Calabasas, CA1:53:30.87 194529  1168 SHO-AIR/VE
3 Coley King   Venice, CA1:53:35.18 19156  380 SMELL THE
4 MARK SCHEETZ   1:57:22.48  781 COATES CYC
5 Anthony Anderson   Reno, NV1:58:33.88 81585  1108 BIKE WAREH
6 HENRY SZCZYPIORSKI   2:03:33.91  959 CYCOPATH
7 Bill Nagler   Indianapolis, IN2:12:50.91 269970  377 COATES
8 Gary Griffith   Highland, CA2:21:49.63 120334  965 TEAM BS
DNF GEORGE MUNOZ   DNF  575 SHO-AIR/RO
DNF MOISES MOLINA   DSQ  665 CYCOPATH

Men - EX - Senior - 19-24

 Place Points NameCity, StateTime USAC #BibTeam
1 YASHIA GARCIA   1:49:40.01  1198 
2 Matthew Connors   Scottsdale, AZ1:50:15.97 196490  528 
3 John Parson   Covington, LA1:51:08.26 236117  499 SIMPLY FIT
4 Nitish Nag   Union City, CA1:56:17.32 216175  788 NRL RACING
5 Logan Fiedler   Vista, CA1:57:36.81 277371  561 I FITNESS
6 John McDermott   Saint Paul, MN2:02:15.26 223017  612 GATEWAY CY
7 Katriel Statman   Lexington, VA2:02:20.23 239294  530 OVERLOOK M
8 Nick Kintz   Marina, CA2:08:14.83 201996  1119 JOSELYNS
DNF Will Ross   Anchorage, AKDNF 222489  1124 

Men - EX - Senior - 25-29

 Place Points NameCity, StateTime USAC #BibTeam
1 James Koch   Oceanside, CA1:46:49.70 89889  954 CYCOPATH
2 Gregory Heinz   Salinas, CA1:48:46.95 180144  565 
3 Tomas Petricko   Encinitas, CA1:57:27.67 165580  569 MAFIA RACI
4 Dan Nielsen   Big Bear City, CA2:12:38.19 139655  1193 BEAR VALLE
5 Stephen Marshall   Big Bear Lake2:14:50.22 122108  429 BEAR VALLE
DNF John Barbachano   Edwards, CADNF 220288  1184 POSSABILIT

Men - EX - Master - 30-34

 Place Points NameCity, StateTime USAC #BibTeam
1 Tony Smith   San Diego, CA1:44:41.85 227061  402 ORGANIC AT
2 Daniel McNaughton   Martinez, CA1:45:42.71 110305  470 CONTENT WO
3 Jonathan Hunter   Ventura, CA1:46:47.30 262354  638 MICHAELS B
4 Josh Chauvet   Reno , NV1:49:04.31 6691  481 ROARING MO
5 Kyle Ashton   Sebastopol, CA1:49:27.81 264499  548 VILLAGE PE
6 Stuart Gonzalez   Riverside, CA1:51:00.08 181200  523 POWERBAR/F
7 Daniel Stromborg   Los Angeles, CA1:51:51.81 237464  1183 HELENS SUB
8 Rod Leveque   Upland, CA1:54:25.17 239226  992 JENSON USA
9 Jon Fugitt   Trabuco Canyon, CA1:55:10.72 230915  603 FLOW MG RA
10 Gregory Hammond   San Carlos, CA1:55:42.63 182697  1185 SHO-AIR/SO
11 Ethan Black   Chico, CA1:56:00.66 194968  1130 
12 Humberto Castro   Anaheim, CA1:56:41.24 245798  1166 JENSEN USA
13 Nathan Wood   Seaside, CA1:56:43.17 248406  459 JOSELYNS/B
14 ERIC CHRISTENSON   1:56:44.72  762 OUTSIDEALL
15 ANTONIO RICALDE   1:58:30.57  1172 
16 BRANT HATTON   1:59:07.50  1173 
17 Gabriel Byrne   Santa Cruz, CA1:59:44.35 178761  514 ACTIVE ATH
18 Micky Froehlich   Los Angeles, CA2:00:33.15 188110  1189 HELENS/GAR
19 Carlos Torres   Culvercity, CA2:01:05.90 262873  1171 
20 Adam Hart   Redlands, CA2:01:43.49 218850  455 TEAM POSSA
21 Charles Hamm   Oxnard, CA2:02:22.54 14837  379 THE HAMM T
22 Clayton Goldsmith   Debary, FL2:06:09.72 13554  478 SHO-AIR
23 Aaron Gibbs   Vista, CA2:11:23.25 176186  1158 
DNF David Sheek   Huntington Beach, CADNF 250444  726 OUTSIDEALL

Men - EX - Master - 35-39

 Place Points NameCity, StateTime USAC #BibTeam
1 Chuck Ross   Auburn, CA1:44:44.97 30625  585 SHO-AIR
2 Scott Marcoe   San Clemente, CA1:44:51.82 98229  745 
3 Iain Paterson   Newbury Park, CA1:45:26.55 235035  736 IDYLLWILD
4 Todd Booth   Santa Barbara, CA1:48:22.65 4249  1181 PLATINUM P
5 Timothy Sparks   Moorpark, CA1:50:57.78 250370  440 SHO-AIR/SO
6 Peter Sproul   Santa Barbara, CA1:50:58.13 33687  589 CHICKEN RA
7 Mario Correa   Chino Hills, CA1:52:31.40 192099  1195 SHO-AIR/SO
8 Paul Adamson   Running Springs, CA1:53:23.64 86993  599 BV BIKES
9 Roger Wotton   Redondo Beach, CA1:53:36.91 38990  649 CYNERGY CY
10 David Reid   Laguna Hills, CA1:54:03.75 260171  785 FLOW MG RA
11 Mark Faulkner   Pacific Grove, CA1:54:37.85 190171  511 JOSELYNS
12 Michael Holk   Pacific Palisades, CA1:56:54.96 16524  476 JOSELYNS/B
13 Rusty Sena   Los Angeles, CA1:59:06.36 189581  1192 HELENS CYC
14 David Lamon   Chatsworth, CA1:59:08.77 186807  799 
15 Chris Marsiguerra   Seaside, CA2:01:25.35 144195  1118 JOESLYN'S
16 Bradley Newby   Saint George, UT2:04:09.34 195141  536 
17 Michael Heindel   San Clemente, CA2:04:59.06 249531  675 FOLLOW MG
18 Brandon Cunningham   Houston, TX2:08:08.18 99593  760 LAS VEGAS
19 CHRIS BATES   2:14:29.89  689 
DNF Barrett Brauer   Santa Ana, CADNF 144201  554 LIQUID FIT
DNF JAVIER REVELES   DNF  732 

Men - EX - Master - 40-44

 Place Points NameCity, StateTime USAC #BibTeam
1 Ian Allen   Oxnard, CA1:42:06.71 85242  805 
2 Mike Hileman   Las Vegas, NV1:44:43.45 162082  564 SHO-AIR
3 Scott Fifield   Reno, NV1:45:12.10 164563  604 NORTHSTAR
4 Tim Zandbergen   Aliso Viejo, CA1:46:14.49 210789  1167 VELOSPOT/S
5 Joseph Prinzivalli   Albuquerque, NM1:46:45.75 28733  442 NEW MEXICO
6 Robert Kmetz   Rancho Santa Margarita, CA1:48:15.59 19419  540 SHO-AIR/SO
7 Bud Donatoni   Newbury Park, CA1:50:15.83 9780  1196 PLATINUM
8 James Cross   Los Angeles, CA1:52:58.52 199358  562 UNATTACHED
9 Bill Scott   Orange, CA1:53:28.75 226977  1156 SHOAIR/SON
10 Adan Guzman   Lawndale, CA1:54:11.66 14489  541 HELENS SUB
11 Sean Smith   Laguna Niguel, CA1:54:31.86 115418  580 VELOSPORT
12 Doug Urbach   West Lake Village, CA1:54:40.12 36238  1188 PLATINUM
13 William Mosher   Beverly Hills, CA1:55:04.68 53858  610 SHO-AIR/SO
14 David Roth   Boulder, CO1:57:12.01 30683  584 HELENS/FIS
15 Lee Bird   La Canada, CA1:59:56.38 195795  557 PAA/MERRIL
16 Brian Teed   Prescott, AZ2:01:06.51 131041  714 
17 Mark Fasczewski   Greensboro, NC2:03:38.40 112145  801 KRYSTAL/SC
18 Steve Boyd   San Diego, CA2:05:04.39 219929  803 
19 Paul Hubbell   Wrightwood, CA2:07:09.77 138340  1174 MOTOR TAGS
DNF Alexander Rouch   Prunedale, CADNF 219680  466 JOSELYNS/B
DNF Dale Niemi   Coto De Caza, CADNF 205689  787 SHO-AIR/SO
DNF Tim Butler   Portland, ORDNF 211505  515 RIVER CITY

Men - EX - Master - 45-49

 Place Points NameCity, StateTime USAC #BibTeam
1 Johnny O'Mara   Laguna Niguel, CA1:38:31.22 50872  573 SHO-AIR/RO
2 Bobby Langin   Thousand Oaks, CA1:43:45.32 254985  798 PLATINUM P
3 Dermot Carroll   Newbury Park, CA1:45:48.26 6277  552 MICHAELS B
4 David Sullivan   Encinitas, CA1:46:47.33 159062  614 SHO-AIR/SO
5 Todd Stephenson   Aliso Viejo, CA1:46:48.40 164458  590 SHO-AIRROC
6 Ron Takeda   Santa Barbara, CA1:48:16.90 34927  1176 PLATINUM P
7 John Swanguen   San Diego, CA1:52:12.03 34733  375 
8 John Biron   Newbury Park, CA1:54:15.51 79727  517 PLATINUM P
9 Thomas Dunlap   Sonora, CA1:54:15.86 79184  433 SONORA CYC
10 Steven Meyer   Breckenridge, CO1:55:47.93 83402  1138 ELLSWORTH
11 Eddie Arnet   Valencia, CA1:57:36.40 1936  1175 MB ACTION
12 David Stowell   San Diego, CA1:58:59.54 170651  465 CAL COAST/
13 Ralph Bonnin   Orange, CA2:00:48.09 127264  951 ODI-SOUTHR
14 Perry Burtch   Grand Terrace, CA2:00:52.03 147739  482 POSSABILIT
15 Arthur MacFarland   Cave Creek, AZ2:01:49.63 79108  447 PROCON CYC
16 Robert Letson   Broomfield, CO2:03:12.31 178769  404 FALCON NET
17 Steve Herrera   Montebello, CA2:21:41.75 148810  454 COVERALLS
DNF Larry Price   Mckinney, TXDNF 28693  1197 FLOW MG

Men - EX - Master - 50-54

 Place Points NameCity, StateTime USAC #BibTeam
1 Michael Hines   Escondido, CA1:13:15.53 125061  1170 RANCHOS TE
2 Dean Swank   Crestline, CA1:14:04.31 215598  615 BV BIKES/S
3 Steve Hensler   Redlands, CA1:14:39.42 15874  1135 POSSIBILIT
4 Peter Stewart   Houston, TX1:14:40.36 167097  969 BIKESPORT
5 JOE GALLAL   1:14:55.29  566 TEAM VELOC
6 Steve Silva   Goleta, CA1:19:22.41 32669  999 PLATINUM R
7 Robert Meeker   Ojai, CA1:21:22.27 23915  743 CHET BEARC
8 Garner Palenske   San Diego, CA1:21:44.46 27102  535 CAL COAST
9 Mark Luke   Goleta, CA1:26:34.87 131303  609 PLATINUM P
10 JORGE HERNANDEZ   1:26:46.47  1117 TURBO
11 BILL WOLF   1:30:50.71  1116 
DNF Karl Schindler   Tucson, AZDNF 100996  403 UR MAMMAS
DNF DEE FOLSE   DNF  1191 SHO-AIR

Men - EX - Master - 55-59

 Place Points NameCity, StateTime USAC #BibTeam
1 Jon Miller   Newbury Park, CA1:14:04.20 167489  576 SHO-AIR
2 Roger Gillespie   Provo, UT1:17:24.12 13281  756 MONAVIE/CA
3 Richard Manzella   Santa Monica, CA1:20:13.17 245515  1182 HELENS SUB
4 Paul Zarubin   Truckee, CA1:22:59.58 196952  493 MT LINCOLN
5 Robert Bernhard   San Diego, CA1:24:47.37 3497  526 CAL COAST
DNF Eric Storm   Apple Valley, CADNF 82406  425 

Men - EX - Master - 60-64

 Place Points NameCity, StateTime USAC #BibTeam
1 Bob Blatner   Brentwood, CA1:18:13.67 128181  556 TM SHO-AIR
2 STAN FORD   1:21:37.44  488 CYCOPATH
3 David Ortega   San Diego, CA1:28:19.75 86603  572 CAL COAST
DNF Ron Gager   Boulder, CODNF 213349  407 THE FIX BI

Men - EX - Master - 65-99

 Place Points NameCity, StateTime USAC #BibTeam
1 Terry Dahl   Santa Barbara, CA1:32:24.04 189437  606 PLATINUM P
2 Frederic Schmid   Waco, TX1:34:16.72 109257  843 BICYCLES O
3 Jurgen Leiser   Colorado Spgs, CO1:39:43.27 20844  415 
4 Buz Brockway   Granada Hills, CA1:46:24.57 86705  1180 TEAM APE
5 Ronald Riley   Aptos, CA1:58:30.89 204167  489 SCCCC

Men - Pro - Senior

 Place Points NameCity, StateTime USAC #BibTeam
1 GEOFF KABUSH   2:08:09.20  TEAM MAXXI
2 Adam Craig   Bend, OR2:08:38.22 94510  GIANT MTB
3 MAX PLAXTON   2:09:17.36  58 ROCKY MOUN
4 Sam Jurekovic   Colorado Springs, CO2:10:07.39 189561  12 U23 NATION
5 Barry Wicks   Corvallis, OR2:10:37.30 134223  KONA
6 KRIS SNEDDON   2:11:06.95  KONA LES G
7 RICKY FEDERAU   2:11:36.46  70 
8 Jeremy Horgan-Kobelski   Boulder, CO2:12:09.68 16737  SUBARU-GAR
9 LIAM KILLEEN   2:13:01.40  30 SPECIALIZE
10 Sam Schultz   Missoula, MT2:14:55.19 164788  15 SUBARU-GAR
11 Carl Decker   Bend, OR2:15:53.26 9007  GIANT MTB
12 Cody Peterson   Bend, OR2:15:58.05 97506  14 SCOTT BICY
13 Andy Schultz   Missoula, MT2:16:53.75 172534  KENDA TITU
14 Charles Pendry   Raleigh, NC2:18:03.18 106096  74 INLAND - B
15 Manuel Prado   Lake Forest, CA2:18:11.93 217924  51 SHO-AIR/RO
16 Ross Schnell   Grand Jct, CO2:18:12.28 99965  17 TREK/VW
17 ADAM MORKA   2:18:49.13  40 3 ROX CYCL
18 Troy Wells   Durango, CO2:19:05.80 112599  33 TOKYO JOES
19 Adam Snyder   Westminster, MA2:19:31.44 122912  18 3-D RACING
20 PETER GLASSFORD   2:19:32.18  42 TREK BICYC
21 Mitchell Peterson   Salt Lake City, UT2:19:33.84 192669  52 MONA VIE/C
22 Jeff Schalk   Frederick, MD2:21:13.44 169390  16 TREK VW- E
23 MARTIN LAZARSKI   2:21:28.93  71 ROCKY MOUN
24 IGNACIO TORRES   2:21:52.60  87 TURBO BIKE
25 Ryan Woodall   Ocala, FL2:21:54.33 153440  49 INDUSTRYNI
26 Ryan Trebon   Bend, OR2:22:52.60 136658  11 KONA
27 DEREK ZANDSTRA   2:22:58.00  27 3 ROX RACI
28 Evan Plews   Salem, OR2:23:02.22 28290  22 SCOTTUSA/C
29 Colin Cares   Boulder, CO2:23:06.99 216528  25 U23 NATION
30 Timothy Olson   Chico, CA2:23:09.98 153947  85 TREK/VW WE
31 Tim Allen   Golden, CO2:23:17.22 161831  68 VOODOO
32 Mike Phillips   Chicago, IL2:23:35.21 84647  64 ALTERRA/SP
33 EMMANUEL VALENCIA   2:23:54.42  86 TURBO
34 Aren Timmel   Chico, CA2:24:07.81 113102  46 TEAM CHICO
35 STEFAN WIDMER   2:24:12.77  38 ROCKY MOUN
36 Travis Livermon   Lewisville, NC2:24:33.80 161583  75 KOBOLD WAT
37 MATTHEW HADLEY   2:24:35.75  55 XPREZO
38 MIGUEL VALADEZ   2:24:43.90  97 VALLE CONG
39 Eric Salstrand   Phoenix, AZ2:25:30.61 176476  28 BICYCLE HA
40 Dana Weber   Aliso Viejo, CA2:25:38.13 126922  20 JAX BICYCL
41 Brian Astell   Gualala, CA2:25:40.63 163428  96 LOST COAST
42 PABLO VOIGT   2:26:44.71  91 TURBO
43 Charles Jenkins   Ridgecrest, CA2:27:09.13 17736  54 IE BIKES R
44 Aroussen Laflamme   Sunnyvale, CA2:27:35.08 272087  41 CBSF/NORMA
45 DANIEL SESSFORD   2:27:36.74  50 BLUE COMPE
46 Paul Hanson   St Peter, MN2:27:37.09 118046  72 SOBE CANNO
47 Travis (TJ) Woodruff   Prescott, AZ2:27:58.83 135975  48 BMC/MOMENT
48 Nat Ross   Golden, CO2:28:10.79 152119  29 SUBARU-GAR
49 Chris Peariso   Amherst, WI2:28:25.71 139566  44 ADVENTURE
50 Kevin Smallman   San Leandro, CA2:29:05.37 204144  94 SOBE CANNO
51 Bryan Fawley   Denton, TX2:29:14.88 198394  93 TX TOUGH/H
52 Trevor Downing   Durango, CO2:29:25.61 161859  31 DEVO
53 KYLE DOUGLAS   2:29:31.98  32 3 ROX RACI
54 ERIC BATTY   2:29:32.39  56 TREK BICYC
55 Sean Donovan   Foothill Ranch, CA2:30:17.66 186481  69 CYTOMAX/KH
56 Mitchell Hoke   Boulder, CO2:30:48.86 203760  45 TOKYO JOS
57 KENJI TAKEYA   2:31:42.87  24 SPECIALIZE
58 Robert Marion   Mount Airy, NC2:32:08.71 220597  73 KENDA TITU
59 Chad Wells   Petoskey, MI2:32:16.76 194504  82 3D RACING
60 Jason First   Laguna Beach, CA2:33:13.47 71635  90 
61 Lucas Livermon   Carrboro, NCPULLED 161552  79 INLAND CON
62 Nigel Hill   Mckinleyville, CAPULLED 185136  83 TREKVWWEST
63 Matthew Rotroff   Lewisville, NCPULLED 180712  63 BTD/INLAND
64 McConnell Franklin   TaosPULLED 215111  26 MIDDLEBURY
65 Amon Pease   Point Arena, CAPULLED 82723  95 TEAM LOST
66 Alex Ryan   Lewisville, NCPULLED 173542  66 LAND ROVER
67 CHANOCH REDLICH   PULLED  21 CITYCYCLIN
68 BRIAN BAIN   PULLED  61 CMC/BOW CY
69 Robert Herber   Murrieta, CAPULLED 153464  60 INTENSE
70 Yuki Saito   Denver, COPULLED 208187  39 FUENTES DE
71 Colin Osborn   Carbondale, COPULLED 210855  35 TEAM BIKEP
72 ANDRE SUTTON   PULLED  81 HARDCORE R
73 Ethan Gilmour   Ludlow, VTPULLED 175603  23 U23 NATION
74 Eric Ransom   Richmond, VAPULLED 150928  80 TEAM TAMAR
75 Nate Whitman   Los Angeles, CAPULLED 188470  77 HAMMER NUT
76 Steven Kinney   Big Bear Lake, CAPULLED 19216  89 STEVEN K S
77 Chris Peterson   Sandy UtPULLED 202966  53 DEVO
78 Michael Mooradian   Saratoga Springs, NYPULLED 79201  59 SPIN BIKE
79 Michael Lee   Mission Viejo, CAPULLED 42231  57 TREK/VW WE
DNF Matthew Freeman   Redlands, CADNF 172215  92 CYCLERY US
DNF MATTHEW PAZIUK   DNF  34 NORCO
DNF SHANE HOLLIONGSHEAD   DNF  36 NORCO
DNF Bart Gillespie   Salt Lake City, UTDNF 13273  37 MONAVIE/CA
DNF Dylan Stucki   Durango, CODNF 192016  47 INDEPENDEN
DNF Luke Pennington   Bellingham, WADNF 118851  65 S & M YOUN
DNF Chance Noble   Camarillo, CADNF 183803  67 CALIF GIAN
DNF Paul Freiwald   Lake Forest, CADNF 12367  76 TITUS CYCL
DNF Kenny Burt   Auburn, CADNF 89186  78 JAMIS KEND
DNF Michael Andres   Durango, CODNF 189954  84 TREK/VW WE
DNF MATHIEU TOULOUSE   DNF  10 TEAM MAXXI

Women - EX - Senior - 19-29

 Place Points NameCity, StateTime USAC #BibTeam
1 ALEKSANDRA ROKITA   1:22:41.02  729 LECHIA PIE
2 Corina Bigham   Mountain View, CA1:24:48.90 194789  839 
3 Emma Worldpeace   Redway, CA1:25:04.51 206653  1162 LOST COAST
4 Lisa Crowe   Redlands, CA1:25:09.52 259708  761 DONS BIKES
5 Philicia Marion   Mount Airy, NC1:28:44.46 220598  887 KENDA TITU
6 Shelli Stevenson   Billings, MT1:31:29.62 221484  1109 TEAM COLE
7 Vanessa Humic   Long Beach, CA1:34:13.23 250250  674 BACKBONE A
8 Brooke Warner   Altadena, CA1:39:09.19 243697  1190 HELENS SUB

Women - EX - Master - 30-39

 Place Points NameCity, StateTime USAC #BibTeam
1 Heidi Bowen   Woodland Hills, CA1:33:16.51 190382  1186 IDYLLWILD
2 Kimberly Hermon   Big Bear City, CA1:46:55.16 145610  752 BEAR VALLE

Women - EX - Master - 40-49

 Place Points NameCity, StateTime USAC #BibTeam
1 Beverly Chaney   Carmel, CA1:23:54.59 221127  686 ROARING MO
2 Tamara Tabeek   San Diego, CA1:26:10.40 73804  617 SCHREIBER
3 HEIDI VOLPE   1:27:12.54  595 SHO-AIR
4 Cheryl Roth   Boulder, CO1:30:59.45 30681  658 HELENS/SUB
5 Caroline Goulard   Aliso Viejo, CA1:38:45.90 203784  676 SHO-AIR/SO
6 Tanya Woody   San Antonio, TX1:43:39.40 236072  966 TEAM KENDA

Women - EX - Master - 50-99

 Place Points NameCity, StateTime USAC #BibTeam
DNF Jeanne Bernhard   San Diego, CADNF 3495  639 CAL COAST

Women - Pro - Senior

 Place Points NameCity, StateTime USAC #BibTeam
1 Georgia Gould   Fort Collins, CO1:57:40.66 183192  101 LUNA WOMEN
2 Katerina Nash   Truckee, CA2:00:32.35 188603  102 LUNA WOMEN
3 WENDY SIMMS   2:02:02.09  112 KONA
4 CATHERINE PENDREL   2:02:07.36  111 LUNA WOMEN
5 EMILY BATTY   2:03:12.87  131 TREK BICYC
6 KELLI EMMETT   2:03:14.57  114 GIANT MTB
7 Heather Irmiger   Boulder, CO2:04:25.52 109232  104 SUBARU-GAR
8 Lea Davison   Jericho, VT2:04:36.43 164014  110 TREK/VW
9 MICAL DYCK   2:04:45.63  115 TREK/TERRA
10 Pua Sawicki   Yucaipa, CA2:07:36.13 208698  149 ELLSWORTH
11 Kathy Sherwin   Heber City, UT2:08:23.14 173633  109 SOBE-CANNO
12 Willow Koerber   Durango, CO2:09:04.92 77103  105 SUBARU-GAR
13 Shonny Vanlandingham   Captain Cook, HI2:09:19.80 89955  103 LUNA WOMEN
14 AMANDA SIN   2:11:10.66  126 3 ROX RACI
15 Nina Baum   Albuquerque, NM2:12:09.30 180986  137 SOBE-CANNO
16 CATHERINE VIPOND   2:13:44.93  128 NORCO
17 Judy Freeman   Littleton Co2:13:45.29 182719  117 TOUGHGIRL
18 Heather Holmes   Atlanta, GA2:14:25.43 222022  147 KENDA/TITU
19 Carolyn Popovic   Philadelphia, PA2:14:38.85 139753  127 CICLE/BEAR
20 MELANIE MCQUAID   2:15:23.91  148 BMC/NATURE
21 Krista Park   Madison, SD2:15:24.51 203842  144 KENDA-TITU
22 Caitlyn Tuel   Golden, CO2:15:57.95 168652  121 TREK/VW /R
23 DANELLE KABUSH   2:16:41.84  129 LUNA WOMEN
24 Emily Van Meter   Portland, OR2:16:42.84 211547  124 SOBE/CANNO
25 MIKAELA KOFMAN   2:17:12.93  125 3 ROX RACI
26 AMANDA RILEY-CAREY   2:18:06.18  130 KENDA/TITU
27 Susan Butler   Portland, OR2:19:43.35 211472  118 MONAVIE/CA
28 Jenna Zander   Mankato, MN2:20:26.01 160568  108 SOBE CANNO
29 Jamie Dinkins   Asheville, NC2:20:31.17 229620  134 DEVO
30 Kyia Anderson   Saint Cloud, MN2:23:00.03 130424  139 EKHO HRM/C
31 Heather Ranoa   Murrieta, CA2:23:37.84 240134  140 INTENSE
32 Kimberly Flynn   Greensboro, NC2:24:44.39 122752  136 VANTAGGIO/
33 Maureen Kunz   Oakland, CA2:25:37.51 206973  151 LOST COAST
34 Patricia Buerkle   Philadelphia, PA2:25:54.95 131990  150 VADERKITTE
35 Theresa Richardson   Davidsonville, MD2:26:16.98 170227  122 SOBE CANNO
36 Mary Ellen Ash   Menlo Park, CAPULLED 254874  132 EASTON/SUG
37 Joy Duerksen   Yucaipa, CAPULLED 218863  142 TEAM JOSE
38 Alexandria Fabbro   Altadena, CAPULLED 56090  138 VELO BELLA
39 Sarah Kaufmann   Park City, UTPULLED 204404  141 ROARING MO
40 Jamie Stamps   Capitola, CAPULLED 234451  135 ANOTHER BI
41 Danae York   Boulder, COPULLED 178290  133 VELOBUM.CO
42 Rachel Throop   Costa Mesa, CAPULLED 174132  145 DEVO
DNF Zephanie Blasi   Vail, AZDNS 156031  106 KENDA TITU
DNF Sarah Maile   Sacramento, CADNF 163025  143 VENTANA MO
DNF Chloe Forsman   Tucson, AZDNF 214920  107 LUNA WOMEN

Women - Junior - JR - 1-18

 Place Points NameCity, StateTime USAC #BibTeam
1 Essence Barton   Thousand Oak, CA1:26:04.95 179924  422 DEVO/NSO
2 claudia A. espinoza   Chula Vista, CA1:29:57.76 255348  376 SDBC
3 Deidre York   Boulder, CO1:30:30.67 178289  458 VELOBUM.CO

Report missing or incorrect license numbers

Volkswagen
USACDFSierra NevadaBonk BreakerOSMOShimanoCUORESpy
UCI USA Cycling is the official governing body for all disciplines of competitive cycling in the United States. The 501c3, membership-based organization aims both to achieve sustained success in international cycling competition and to grow competitive cycling in America while delivering an exceptional customer experience.
View Children's Online Privacy Protection Policy
US Olympic Committee